Wind_Speed
6 6 6 6 6 6 7 7 8 8 8 8 8 8 7 7 8 8 7 6 6 6 5 6 5 5 5 4 4 4 4 4 4 3 3 4 4 4 4 3 3 3 2
5 5 6 6 5 6 6 7 7 7 7 7 7 7 7 7 7 7 6 7 6 6 5 5 5 5 5 4 4 4 4 4 4 3 3 3 3 4 4 3 3 3 3
5 5 5 4 4 5 5 6 6 6 6 6 6 7 6 6 6 6 6 6 5 5 5 5 5 5 5 4 3 3 3 3 3 3 2 3 3 3 4 4 2 2 2
4 4 4 3 3 4 4 5 5 5 5 5 5 6 6 6 6 5 5 4 5 5 5 5 5 5 4 4 4 3 3 3 3 3 3 2 2 3 3 3 2 2 2
3 3 3 3 3 3 3 3 4 4 4 4 4 4 5 5 5 5 4 4 4 4 5 5 4 5 4 4 3 3 3 3 3 3 2 3 3 3 3 3 2 2 1
3 3 3 3 3 3 3 3 3 3 3 3 3 3 4 4 4 4 4 4 4 4 4 4 4 3 3 3 2 2 3 3 3 3 3 3 3 3 3 3 2 2 1
2 3 3 3 2 2 3 3 3 3 3 3 3 3 3 4 4 4 4 4 4 4 4 4 3 3 2 2 2 2 3 3 3 3 3 3 3 2 3 3 3 2 2
2 2 2 2 2 2 3 3 3 3 2 2 2 2 3 3 4 4 4 4 3 3 3 3 2 2 1 1 1 2 2 3 3 2 3 3 3 3 3 3 3 3 3
2 2 2 2 2 2 2 2 2 2 2 2 2 2 2 3 4 3 4 3 3 3 3 2 2 2 1 2 2 2 2 2 2 2 3 3 2 2 2 3 3 3 3
2 2 2 3 3 2 2 2 3 2 2 2 2 2 3 2 3 3 4 3 3 3 2 2 2 2 2 2 2 2 2 2 2 2 3 3 2 2 2 2 3 3 3
2 2 1 2 3 2 2 2 3 2 2 2 1 2 2 2 2 3 3 3 3 3 2 1 1 2 2 2 2 2 1 1 2 2 3 3 3 2 2 2 3 3 3
3 3 3 3 3 3 3 3 3 3 2 2 1 1 2 2 3 2 3 3 2 2 1 1 1 2 2 3 3 3 2 2 2 3 3 3 3 3 2 2 3 3 3
3 3 4 3 3 3 3 3 3 3 3 3 2 2 2 2 2 2 2 2 1 1 1 2 2 2 2 2 3 3 2 1 2 2 2 2 2 3 3 3 3 3 3
4 4 4 4 4 3 3 3 3 3 3 3 2 2 2 2 1 1 1 1 1 1 1 2 2 2 2 2 2 3 2 2 2 3 2 2 2 3 4 4 4 4 4
4 4 4 4 4 4 4 4 3 3 3 3 3 1 1 2 1 1 1 1 1 1 1 1 3 3 2 2 2 3 3 3 2 2 2 3 3 4 4 4 4 4 4
4 4 4 4 4 4 4 3 3 4 3 3 2 1 1 2 1 2 2 2 2 1 1 1 2 3 2 2 2 3 3 3 3 3 3 3 4 4 4 5 5 5 5
5 5 4 4 4 4 4 4 4 4 4 3 2 2 2 1 1 2 2 2 3 2 2 2 3 3 3 3 3 3 4 4 4 4 4 4 4 5 5 5 5 5 5
6 6 5 5 4 4 5 5 5 5 4 3 2 2 2 2 2 3 3 2 3 3 2 3 3 3 3 3 4 4 5 5 4 4 4 4 5 5 5 5 5 6 6
7 6 6 5 5 5 5 4 5 5 4 3 3 2 2 3 3 3 3 3 3 3 3 3 4 4 4 4 5 5 5 6 6 6 5 5 5 5 6 6 6 6 6
7 7 6 5 5 5 6 5 5 5 4 4 4 3 3 3 3 3 3 4 4 4 4 5 5 5 5 5 5 6 6 7 7 7 7 6 6 6 7 7 7 7 7
7 7 7 6 6 6 6 6 5 5 5 5 4 4 4 4 4 4 4 5 6 5 5 6 6 6 6 6 6 6 7 7 7 7 8 8 8 8 8 9 8 8 8
7 7 7 7 6 6 6 6 6 5 5 4 5 5 5 5 5 6 6 6 6 6 6 7 7 7 7 7 7 8 8 8 9 9 9 9 9 9 10 10 9 10 10
6 7 7 7 7 6 7 7 7 6 6 6 5 5 5 6 6 6 7 7 7 7 7 8 9 9 9 9 10 10 10 10 10 10 10 10 10 11 11 11 11 12 12
7 8 8 8 8 8 8 8 8 7 7 7 7 6 7 7 8 8 8 8 9 9 9 9 10 11 11 11 12 12 12 12 12 12 11 11 12 13 13 13 13 13 14
8 9 9 9 9 9 9 10 9 8 8 8 8 8 9 9 9 10 10 10 10 11 11 11 12 12 13 13 14 14 14 15 15 14 13 13 14 14 14 15 15 15 16
10 11 11 10 10 10 11 11 11 11 10 10 10 10 10 10 11 11 11 12 13 13 13 13 13 14 14 14 15 16 16 16 17 16 16 16 16 16 16 16 16 17 17
Wind_Direction
92 99 98 99 96 96 101 102 108 113 114 114 113 115 113 108 108 110 114 115 117 119 122 119 112 105 107 97 89 81 78 76 70 75 77 70 62 56 52 48 67 79 89
89 98 101 105 99 96 99 102 103 104 110 114 114 112 113 111 109 111 112 110 113 116 116 113 109 106 103 95 90 86 75 66 62 71 72 62 57 54 48 45 63 81 91
87 97 105 109 101 97 101 103 102 100 102 108 108 111 112 111 108 112 113 108 106 107 110 107 104 102 96 92 92 80 68 60 58 56 44 55 56 47 40 40 60 70 80
91 96 102 109 102 99 99 103 99 97 98 95 99 104 110 109 108 112 116 108 103 101 105 103 102 99 96 93 87 75 64 49 48 48 28 20 28 36 34 35 42 68 77
94 103 105 106 106 100 99 103 102 98 98 100 98 100 107 109 111 111 113 106 102 98 100 101 102 101 93 88 78 64 56 40 38 30 23 18 28 46 38 28 42 54 54
99 104 104 102 101 93 91 97 102 100 97 102 101 97 111 114 113 116 115 115 108 108 109 105 102 104 89 79 73 66 55 41 35 27 26 27 30 41 32 30 46 35 24
98 97 92 93 91 84 78 83 85 91 97 97 99 104 115 116 113 113 115 118 115 110 109 106 98 95 81 67 67 60 49 41 38 31 26 16 21 27 26 27 34 31 15
90 92 81 85 77 77 71 70 73 76 93 95 91 103 108 117 117 113 112 114 113 113 110 110 107 95 83 57 51 34 30 34 23 22 23 27 23 30 28 19 24 25 13
60 64 71 77 68 61 61 64 68 75 77 83 76 79 90 117 122 117 107 103 114 116 111 105 100 76 53 40 37 36 33 30 30 17 13 26 21 25 16 17 19 14 17
39 41 72 78 62 61 66 59 57 68 69 75 72 76 78 112 126 125 108 106 107 112 108 98 75 57 45 37 29 19 16 17 17 3 1 11 8 14 14 13 17 15 17
46 63 63 67 60 59 51 48 59 65 59 59 71 89 84 103 127 126 108 103 98 95 85 63 54 40 28 16 3 360 350 13 358 356 351 359 5 11 9 11 16 13 11
64 67 61 54 54 56 53 52 60 51 42 52 66 84 101 114 116 117 111 97 88 73 59 29 19 9 1 359 0 2 1 8 357 359 354 357 0 8 3 4 9 6 358
64 59 48 45 39 43 46 40 48 49 43 51 58 74 86 114 122 122 114 103 77 54 49 19 1 356 356 354 356 356 2 2 355 358 356 360 2 5 358 351 348 343 339
58 55 51 51 39 35 37 31 34 46 43 43 50 81 78 98 113 104 113 99 55 43 31 18 10 359 1 5 0 359 354 358 21 9 356 345 338 340 344 343 339 336 337
55 47 49 38 30 24 23 16 16 22 37 35 38 37 65 82 65 61 36 21 12 2 360 5 16 1 354 350 349 346 351 358 4 359 349 338 328 321 325 324 327 326 322
46 42 40 34 22 10 7 5 354 356 9 21 24 20 38 35 16 13 8 355 6 2 10 16 11 1 355 351 343 336 334 336 331 325 323 325 317 309 310 314 318 321 317
39 37 35 31 19 13 9 1 355 356 356 360 16 19 32 14 3 356 349 342 354 1 359 1 5 357 351 346 340 333 325 321 322 319 319 317 313 310 307 308 314 313 315
35 33 33 30 20 11 6 2 5 9 6 5 24 22 22 19 12 7 355 338 344 347 349 353 351 342 339 336 328 320 323 325 325 328 324 321 316 312 308 308 315 305 306
31 28 27 24 18 11 12 12 15 14 11 17 23 19 10 11 1 351 337 348 345 340 332 329 332 334 331 331 334 329 328 326 323 321 317 317 317 314 312 312 311 308 300
18 15 12 10 14 14 12 7 2 358 3 11 13 9 4 2 348 341 340 337 335 335 329 329 329 328 328 332 330 326 323 323 326 324 322 319 318 319 316 313 314 306 300
6 5 8 9 13 16 11 8 2 358 2 3 359 357 358 353 338 326 339 330 325 321 316 322 323 317 317 320 319 318 318 319 317 316 314 310 310 312 310 314 312 306 302
351 355 358 1 0 5 3 1 356 351 347 342 333 334 332 331 331 326 321 320 322 316 313 314 317 314 309 310 311 312 313 314 312 312 308 303 302 308 307 301 299 299 296
339 343 343 342 343 345 345 344 344 341 335 329 324 320 319 317 313 317 316 312 312 315 313 312 310 311 308 305 306 305 306 307 309 305 300 302 300 299 299 298 296 295 294
331 331 330 329 327 327 328 329 329 327 324 320 317 314 313 317 312 307 308 307 306 309 308 308 311 307 308 307 306 306 304 301 303 298 294 296 299 298 298 297 295 293 291
321 322 323 321 320 320 320 321 320 321 317 315 315 313 309 308 307 305 304 303 302 304 306 307 308 307 306 307 306 307 305 302 302 297 294 295 296 297 297 297 295 292 291
313 314 312 311 310 310 311 312 315 317 314 315 313 310 308 306 304 306 304 301 297 297 301 302 304 308 308 306 305 306 306 305 304 299 294 295 296 295 295 296 294 290 290
Height
5891 5891 5891 5892 5892 5892 5892 5892 5892 5892 5892 5892 5893 5893 5893 5894 5894 5895 5895 5896 5896 5897 5897 5898 5898 5898 5899 5899 5899 5900 5900 5900 5900 5900 5900 5900 5900 5900 5900 5900 5900 5900 5901
5892 5892 5892 5893 5893 5893 5893 5894 5894 5894 5894 5894 5894 5894 5895 5895 5896 5896 5897 5897 5897 5898 5898 5899 5899 5899 5900 5900 5900 5900 5901 5901 5900 5900 5901 5901 5901 5901 5901 5901 5901 5901 5901
5893 5894 5894 5894 5894 5895 5895 5895 5895 5895 5895 5895 5896 5896 5896 5897 5897 5898 5898 5898 5899 5899 5899 5900 5900 5900 5900 5901 5901 5901 5901 5901 5901 5901 5901 5901 5901 5901 5901 5901 5902 5902 5902
5895 5895 5895 5895 5896 5896 5896 5896 5896 5896 5897 5897 5897 5897 5898 5898 5898 5899 5899 5899 5900 5900 5900 5900 5901 5901 5901 5901 5901 5902 5902 5902 5902 5902 5902 5901 5901 5902 5902 5902 5902 5902 5902
5896 5896 5896 5897 5897 5897 5897 5897 5897 5897 5898 5898 5898 5898 5899 5899 5899 5900 5900 5900 5901 5901 5901 5901 5902 5902 5902 5902 5902 5902 5902 5902 5902 5902 5902 5902 5902 5902 5903 5903 5903 5903 5903
5897 5898 5898 5898 5898 5898 5899 5898 5898 5898 5898 5899 5899 5899 5899 5900 5900 5901 5901 5901 5902 5902 5902 5902 5903 5903 5903 5903 5903 5903 5903 5903 5903 5903 5903 5903 5903 5903 5903 5903 5903 5903 5903
5899 5899 5899 5899 5899 5899 5900 5899 5899 5899 5899 5900 5900 5900 5900 5901 5901 5901 5902 5902 5902 5903 5903 5903 5904 5903 5904 5903 5903 5904 5903 5903 5903 5904 5903 5903 5903 5904 5904 5904 5903 5903 5903
5899 5899 5900 5900 5900 5900 5900 5900 5900 5900 5900 5900 5901 5901 5901 5901 5902 5902 5903 5903 5903 5903 5904 5904 5904 5904 5904 5904 5904 5904 5904 5904 5904 5904 5904 5904 5904 5904 5904 5904 5904 5904 5903
5900 5900 5901 5901 5901 5901 5901 5901 5901 5901 5901 5901 5902 5902 5902 5902 5903 5903 5903 5903 5904 5904 5904 5905 5905 5904 5904 5904 5904 5904 5904 5904 5904 5904 5904 5904 5904 5904 5904 5904 5904 5904 5904
5901 5901 5901 5902 5902 5902 5902 5902 5902 5902 5902 5902 5902 5902 5902 5903 5903 5904 5904 5904 5904 5905 5905 5905 5905 5905 5905 5905 5905 5905 5905 5905 5905 5905 5905 5904 5904 5904 5904 5904 5904 5904 5904
5902 5902 5902 5903 5903 5903 5903 5903 5903 5903 5903 5903 5903 5903 5903 5904 5904 5904 5905 5905 5905 5906 5906 5906 5906 5906 5906 5906 5906 5905 5905 5905 5905 5905 5905 5905 5905 5905 5904 5904 5904 5904 5904
5903 5903 5903 5904 5904 5904 5904 5904 5904 5904 5903 5904 5904 5904 5904 5905 5905 5905 5905 5906 5906 5906 5906 5907 5907 5907 5907 5906 5906 5906 5905 5906 5906 5905 5905 5905 5905 5905 5905 5905 5904 5904 5904
5904 5904 5904 5904 5904 5904 5904 5904 5905 5905 5904 5904 5904 5904 5905 5905 5905 5905 5906 5906 5907 5907 5907 5907 5907 5907 5907 5907 5906 5906 5906 5906 5906 5906 5905 5905 5905 5905 5905 5905 5904 5904 5904
5905 5905 5905 5905 5905 5905 5905 5905 5905 5905 5905 5905 5905 5905 5905 5906 5906 5906 5906 5907 5907 5907 5907 5907 5907 5907 5907 5907 5906 5906 5906 5906 5906 5906 5905 5905 5905 5905 5905 5905 5904 5904 5904
5907 5907 5907 5906 5907 5906 5906 5906 5906 5906 5905 5905 5905 5905 5906 5906 5907 5907 5907 5907 5907 5907 5907 5907 5907 5907 5907 5906 5906 5906 5906 5906 5906 5906 5905 5905 5905 5905 5905 5905 5904 5904 5904
5908 5908 5908 5907 5907 5907 5907 5907 5906 5906 5906 5906 5906 5906 5906 5906 5907 5907 5907 5907 5907 5907 5907 5907 5907 5907 5907 5906 5906 5906 5906 5905 5905 5905 5904 5904 5904 5904 5904 5904 5904 5903 5903
5909 5909 5908 5908 5908 5908 5908 5907 5907 5907 5907 5907 5907 5906 5907 5907 5907 5907 5907 5907 5907 5907 5907 5907 5907 5907 5906 5906 5906 5906 5906 5905 5905 5905 5904 5904 5904 5903 5903 5903 5903 5903 5902
5910 5910 5909 5909 5909 5909 5908 5908 5907 5907 5907 5907 5907 5907 5907 5907 5907 5907 5907 5908 5907 5907 5907 5907 5907 5907 5906 5906 5906 5905 5905 5905 5904 5904 5904 5903 5903 5902 5902 5902 5902 5902 5901
5911 5911 5910 5910 5910 5910 5909 5908 5908 5908 5908 5908 5908 5908 5908 5908 5908 5908 5908 5908 5908 5907 5907 5907 5907 5906 5906 5906 5905 5905 5905 5904 5904 5903 5902 5902 5902 5902 5901 5901 5900 5900 5900
5912 5912 5911 5911 5911 5910 5910 5909 5909 5909 5909 5909 5908 5908 5908 5908 5908 5908 5908 5908 5908 5907 5907 5907 5906 5906 5905 5905 5904 5904 5904 5903 5903 5902 5901 5901 5901 5901 5900 5900 5899 5898 5898
5913 5913 5912 5912 5911 5911 5910 5910 5910 5910 5909 5909 5909 5909 5908 5908 5908 5907 5908 5907 5907 5907 5907 5906 5906 5905 5905 5904 5903 5903 5903 5901 5901 5900 5900 5900 5899 5899 5897 5898 5897 5897 5896
5914 5913 5912 5912 5912 5911 5911 5910 5910 5910 5909 5909 5909 5909 5908 5908 5908 5907 5907 5907 5907 5906 5906 5905 5905 5904 5903 5903 5903 5902 5901 5900 5899 5898 5898 5897 5897 5896 5895 5896 5895 5895 5894
5914 5913 5913 5912 5912 5912 5911 5911 5910 5910 5909 5909 5908 5908 5908 5908 5907 5907 5907 5906 5906 5906 5905 5904 5904 5903 5902 5902 5901 5900 5899 5899 5898 5897 5895 5895 5894 5894 5894 5893 5892 5892 5891
5913 5913 5913 5912 5912 5911 5911 5910 5910 5909 5909 5908 5908 5907 5907 5907 5906 5906 5905 5905 5904 5904 5903 5903 5902 5901 5900 5899 5898 5897 5896 5895 5894 5894 5893 5892 5892 5891 5891 5890 5889 5888 5888
5913 5912 5912 5911 5911 5910 5910 5909 5909 5908 5907 5907 5906 5906 5906 5906 5905 5904 5903 5903 5902 5902 5901 5900 5899 5898 5897 5897 5895 5894 5893 5892 5891 5890 5890 5889 5889 5888 5887 5886 5886 5885 5884
5912 5911 5911 5910 5910 5909 5908 5908 5907 5907 5906 5906 5905 5905 5904 5904 5903 5902 5900 5900 5900 5900 5899 5898 5897 5896 5894 5893 5892 5891 5890 5889 5888 5887 5886 5885 5884 5884 5883 5882 5882 5881 5880